User: anonymous   Login
Location: Slanting_Bridge
(35.6330°N, 80.9830°W)
Time: 19:29:12
(UTC-05:00)
Language:

Hamsat - Orbit

View from above orbital plane
View from above orbital plane
View from above satellite
View from above satellite

Ground track
Ground track

The orbit data is extracted from the following two-line orbital elements,

1 28650U 05017B   15031.22417676  .00002834  00000-0  32289-3 0  9690
2 28650 097.5674 030.0172 0025922 123.1938 237.1769 14.86678231527095
Epoch (UTC): 31 January 2015 05:22:48
Eccentricity: 0.0025922
inclination: 97.5674°
perigee height: 590 km
apogee height: 626 km
right ascension of ascending node: 30.0172°
argument of perigee: 123.1938°
revolutions per day: 14.86678231
mean anomaly at epoch: 237.1769°
orbit number at epoch: 52709

The dashed part of the orbit path shows where the satellite is in the earth's shadow,  

DLR